Location: Little Maitland River
(43.8022°N, 81.1549°W)
Time: 22:56:54
(UTC+00:00)

Meteor 2-6 Rocket - Pass Details

Date: 09 December 2025
Orbit: 805 x 913 km, 81.3° (Epoch: 21 January)

Event Time Altitude Azimuth Distance (km) Brightness Sun altitude
Rises 11:34:25 0° 349° (N) 3,549 7.1 -12.6°
Reaches altitude 10° 11:36:54 10° 350° (N) 2,608 6.5 -12.2°
Maximum altitude 11:42:53 89° 77° (ENE) 919 4.4 -11.2°
Drops below altitude 10° 11:48:49 10° 171° (S) 2,580 7.2 -10.2°
Sets 11:51:15 0° 172° (S) 3,509 7.9 -9.8°
